Location: Ammerl�gen
(47.2167°N, 9.6000°E)
Time: 17:01:11
(UTC+00:00)

Cosmos 1980 - Pass Details

Date: 21 April 2021
Orbit: 838 x 848 km, 71.0° (Epoch: 06 May)

Event Time Altitude Azimuth Distance (km) Brightness Sun altitude
Rises 19:45:32 0° 331° (NNW) 3,419 8.1 -13.8°
Reaches altitude 10° 19:47:59 10° 331° (NNW) 2,481 7.2 -14.2°
Maximum altitude 19:53:41 78° 245° (WSW) 871 3.8 -14.9°
Enters shadow 19:58:01 18° 162° (SSE) 1,973 5.1 -15.5°
